Location: ????????
(56.0167°N, 38.0333°E)
Time: 05:16:02
(UTC+00:00)

BlueWalker 3 - Visible Passes

Search period start: 18 January 2026 00:00
Search period end: 28 January 2026 00:00
Orbit: 451 x 463 km, 53.2° (Epoch: 17 January)

Date Brightness Start Highest point End Pass type
(mag) Time Alt. Az. Time Alt. Az. Time Alt. Az.
22 Jan 4.5 16:51:49 10° SSW 16:52:19 13° SSW 16:52:19 13° SSW visible
23 Jan 3.6 16:16:39 10° SSW 16:18:33 21° S 16:18:33 21° S visible
24 Jan 3.3 15:41:31 10° SSW 15:44:17 21° SSE 15:44:42 21° SE visible
24 Jan 4.6 17:17:48 10° WSW 17:18:27 14° WSW 17:18:27 14° WSW visible
25 Jan 3.6 15:06:25 10° S 15:08:57 18° SE 15:10:48 13° ESE visible
25 Jan 3.3 16:42:27 10° WSW 16:44:33 29° SW 16:44:33 29° SW visible
26 Jan 3.9 14:31:25 10° S 14:33:38 16° SE 14:35:51 10° ESE visible
26 Jan 2.4 16:07:06 10° SW 16:10:29 40° SSE 16:10:36 40° SSE visible
26 Jan 5.1 17:44:11 10° W 17:44:20 11° W 17:44:20 11° W visible
27 Jan 2.6 15:31:46 10° SW 15:35:05 37° SSE 15:36:36 24° ESE visible
27 Jan 4.0 17:08:46 10° WSW 17:10:20 24° WSW 17:10:20 24° WSW visible
